When you browse on this site, cookies collect data to enhance your experience and personalize the content and advertising you see.
Visit our Privacy Policy to learn more. By continuing to use the site, you agree to this use of cookies and data.
  • In Czech Republic
  • List of Countries
  • For 7 days
  • Water Temperature
  • Weather Map
  • Weather Widgets
  • user-avatar
    Login

    Hourly Weather Rawson

    Today, 17 February, Monday

    Time Temperature Precipitation Wind Pressure Humidity
    00:00 +17°C° 0 mm 3 mps 753 mmHg 53%
    01:00 +17°C° 0 mm 2 mps 753 mmHg 55%
    02:00 +17°C° 0 mm 2 mps 753 mmHg 57%
    03:00 +17°C° 0 mm 2 mps 753 mmHg 56%
    04:00 +17°C° 0 mm 2 mps 753 mmHg 56%
    05:00 +17°C° 0 mm 2 mps 753 mmHg 55%
    06:00 +18°C° 0 mm 3 mps 754 mmHg 48%
    07:00 +19°C° 0 mm 5 mps 754 mmHg 41%
    08:00 +19°C° 0 mm 6 mps 754 mmHg 33%
    09:00 +20°C° 0 mm 6 mps 754 mmHg 31%
    10:00 +21°C° 0 mm 7 mps 754 mmHg 28%
    11:00 +22°C° 0 mm 7 mps 755 mmHg 26%
    12:00 +23°C° 0 mm 7 mps 755 mmHg 26%
    13:00 +23°C° 0 mm 6 mps 755 mmHg 25%
    14:00 +23°C° 0 mm 5 mps 755 mmHg 25%
    15:00 +23°C° 0 mm 5 mps 754 mmHg 27%
    16:00 +22°C° 0 mm 5 mps 754 mmHg 29%
    17:00 +22°C° 0 mm 5 mps 754 mmHg 31%
    18:00 +20°C° 0 mm 4 mps 754 mmHg 38%
    19:00 +18°C° 0 mm 4 mps 754 mmHg 45%
    20:00 +17°C° 0 mm 4 mps 754 mmHg 51%
    21:00 +15°C° 0 mm 4 mps 754 mmHg 52%
    22:00 +15°C° 0 mm 4 mps 755 mmHg 52%
    23:00 +14°C° 0 mm 4 mps 755 mmHg 52%

    Tomorrow, 18 February, Tuesday

    Time Temperature Precipitation Wind Pressure Humidity
    00:00 +15°C° 0 mm 4 mps 755 mmHg 48%
    01:00 +15°C° 0 mm 5 mps 755 mmHg 44%
    02:00 +15°C° 0 mm 5 mps 756 mmHg 39%
    03:00 +15°C° 0 mm 5 mps 756 mmHg 38%
    04:00 +15°C° 0 mm 5 mps 756 mmHg 37%
    05:00 +15°C° 0 mm 5 mps 756 mmHg 36%
    06:00 +17°C° 0 mm 7 mps 755 mmHg 33%
    07:00 +20°C° 0 mm 8 mps 755 mmHg 30%
    08:00 +22°C° 0 mm 9 mps 755 mmHg 28%
    09:00 +23°C° 0 mm 10 mps 755 mmHg 27%
    10:00 +24°C° 0 mm 10 mps 754 mmHg 26%
    11:00 +27°C° 0 mm 10 mps 754 mmHg 25%
    12:00 +28°C° 0 mm 10 mps 754 mmHg 24%
    13:00 +29°C° 0 mm 9 mps 753 mmHg 23%
    14:00 +31°C° 0 mm 9 mps 753 mmHg 22%
    15:00 +29°C° 0 mm 9 mps 752 mmHg 22%
    16:00 +29°C° 0 mm 9 mps 752 mmHg 23%
    17:00 +29°C° 0 mm 8 mps 751 mmHg 24%
    18:00 +27°C° 0 mm 7 mps 751 mmHg 27%
    19:00 +26°C° 0 mm 7 mps 751 mmHg 31%
    20:00 +23°C° 0 mm 6 mps 751 mmHg 34%
    21:00 +23°C° 0 mm 7 mps 752 mmHg 31%
    22:00 +22°C° 0 mm 9 mps 752 mmHg 28%
    23:00 +22°C° 0 mm 11 mps 753 mmHg 25%

    Day after tomorrow, 19 February, Wednesday

    Time Temperature Precipitation Wind Pressure Humidity
    00:00 +21°C° 0 mm 11 mps 753 mmHg 27%
    01:00 +18°C° 0 mm 11 mps 753 mmHg 28%
    02:00 +17°C° 0 mm 11 mps 753 mmHg 30%
    03:00 +16°C° 0 mm 11 mps 754 mmHg 33%
    04:00 +14°C° 0 mm 10 mps 754 mmHg 36%
    05:00 +13°C° 0 mm 9 mps 754 mmHg 40%
    06:00 +15°C° 0 mm 8 mps 755 mmHg 39%
    07:00 +15°C° 0 mm 8 mps 756 mmHg 38%
    08:00 +16°C° 0 mm 8 mps 756 mmHg 37%
    09:00 +17°C° 0 mm 8 mps 756 mmHg 33%
    10:00 +17°C° 0 mm 9 mps 757 mmHg 30%
    11:00 +18°C° 0 mm 9 mps 757 mmHg 26%
    12:00 +18°C° 0 mm 9 mps 757 mmHg 26%
    13:00 +19°C° 0 mm 9 mps 758 mmHg 26%
    14:00 +19°C° 0 mm 9 mps 758 mmHg 26%
    15:00 +19°C° 0 mm 9 mps 758 mmHg 27%
    16:00 +18°C° 0 mm 8 mps 758 mmHg 28%
    17:00 +18°C° 0 mm 8 mps 758 mmHg 28%
    18:00 +17°C° 0 mm 7 mps 759 mmHg 32%
    19:00 +15°C° 0 mm 6 mps 760 mmHg 36%
    20:00 +14°C° 0 mm 6 mps 760 mmHg 40%
    21:00 +13°C° 0 mm 5 mps 761 mmHg 40%
    22:00 +13°C° 0 mm 4 mps 761 mmHg 40%
    23:00 +12°C° 0 mm 4 mps 762 mmHg 40%

    20 February, Thursday

    Time Temperature Precipitation Wind Pressure Humidity
    00:00 +12°C° 0 mm 4 mps 762 mmHg 39%
    01:00 +12°C° 0 mm 5 mps 762 mmHg 39%
    02:00 +11°C° 0 mm 6 mps 762 mmHg 38%
    03:00 +11°C° 0 mm 6 mps 763 mmHg 43%
    04:00 +11°C° 0 mm 7 mps 763 mmHg 49%
    05:00 +10°C° 0 mm 8 mps 764 mmHg 54%
    06:00 +11°C° 0 mm 8 mps 764 mmHg 50%
    07:00 +12°C° 0 mm 9 mps 765 mmHg 47%
    08:00 +13°C° 0 mm 10 mps 765 mmHg 44%
    09:00 +14°C° 0 mm 10 mps 766 mmHg 42%
    10:00 +16°C° 0 mm 9 mps 766 mmHg 40%
    11:00 +17°C° 0 mm 9 mps 766 mmHg 38%
    12:00 +18°C° 0 mm 9 mps 766 mmHg 39%
    13:00 +18°C° 0 mm 9 mps 766 mmHg 40%
    14:00 +18°C° 0 mm 9 mps 767 mmHg 41%
    15:00 +18°C° 0 mm 9 mps 766 mmHg 45%
    16:00 +17°C° 0 mm 9 mps 766 mmHg 49%
    17:00 +16°C° 0 mm 9 mps 766 mmHg 53%
    18:00 +15°C° 0 mm 8 mps 766 mmHg 59%
    19:00 +13°C° 0 mm 8 mps 767 mmHg 65%
    20:00 +12°C° 0 mm 7 mps 767 mmHg 71%
    21:00 +13°C° 0 mm 6 mps 767 mmHg 73%
    22:00 +12°C° 0 mm 5 mps 767 mmHg 76%
    23:00 +12°C° 0 mm 4 mps 768 mmHg 78%

    21 February, Friday

    Time Temperature Precipitation Wind Pressure Humidity
    00:00 +11°C° 0 mm 3 mps 768 mmHg 80%
    01:00 +10°C° 0 mm 2 mps 768 mmHg 82%
    02:00 +10°C° 0 mm 1 mps 768 mmHg 84%
    09:00 +16°C° 0 mm 2 mps 767 mmHg 59%
    10:00 +17°C° 0 mm 2 mps 767 mmHg 51%
    11:00 +19°C° 0 mm 2 mps 766 mmHg 43%
    12:00 +20°C° 0 mm 4 mps 766 mmHg 42%
    13:00 +21°C° 0 mm 5 mps 765 mmHg 40%
    14:00 +22°C° 0 mm 6 mps 765 mmHg 39%
    15:00 +21°C° 0 mm 7 mps 764 mmHg 40%
    16:00 +21°C° 0 mm 7 mps 764 mmHg 40%
    17:00 +21°C° 0 mm 8 mps 763 mmHg 41%
    18:00 +20°C° 0 mm 8 mps 763 mmHg 50%
    19:00 +17°C° 0 mm 7 mps 763 mmHg 59%
    20:00 +15°C° 0 mm 7 mps 763 mmHg 67%
    21:00 +14°C° 0 mm 7 mps 763 mmHg 70%
    22:00 +14°C° 0 mm 7 mps 763 mmHg 73%
    23:00 +14°C° 0 mm 7 mps 763 mmHg 75%

    22 February, Saturday

    Time Temperature Precipitation Wind Pressure Humidity
    00:00 +13°C° 0 mm 8 mps 762 mmHg 78%
    01:00 +13°C° 0 mm 8 mps 762 mmHg 80%
    02:00 +13°C° 0 mm 8 mps 761 mmHg 83%
    03:00 +13°C° 0 mm 8 mps 761 mmHg 80%
    04:00 +13°C° 0 mm 8 mps 761 mmHg 78%
    05:00 +15°C° 0 mm 9 mps 760 mmHg 76%
    06:00 +16°C° 0 mm 9 mps 760 mmHg 63%
    07:00 +18°C° 0 mm 10 mps 760 mmHg 51%
    08:00 +21°C° 0 mm 10 mps 759 mmHg 38%
    09:00 +23°C° 0 mm 10 mps 759 mmHg 32%
    10:00 +27°C° 0 mm 11 mps 758 mmHg 25%
    11:00 +31°C° 0 mm 11 mps 757 mmHg 19%
    12:00 +32°C° 0 mm 11 mps 757 mmHg 18%
    13:00 +33°C° 0 mm 12 mps 756 mmHg 16%
    14:00 +36°C° 0 mm 12 mps 755 mmHg 15%
    15:00 +34°C° 0 mm 12 mps 754 mmHg 15%
    16:00 +34°C° 0 mm 12 mps 753 mmHg 16%
    17:00 +34°C° 0 mm 12 mps 752 mmHg 16%
    18:00 +32°C° 0 mm 12 mps 752 mmHg 21%
    19:00 +28°C° 0 mm 12 mps 752 mmHg 26%
    20:00 +26°C° 0 mm 12 mps 751 mmHg 30%
    21:00 +26°C° 0 mm 10 mps 751 mmHg 29%
    22:00 +27°C° 0 mm 9 mps 751 mmHg 27%
    23:00 +27°C° 0 mm 8 mps 752 mmHg 25%
    Show more